Weather History for Creston, IA

Change the Weather History Date:

Sunday, December 8, 2013

  Actual Average Record
Temperature  
Mean Temperature 12 °F -  
Max Temperature 17 °F 35 °F 57 °F (1984)
Min Temperature 8 °F 18 °F -4 °F (2005)
Degree Days  
Heating Degree Days 52    
Moisture  
Dew Point 8 °F    
Average Humidity 77    
Maximum Humidity 93    
Minimum Humidity 53    
Precipitation  
Precipitation 0.00 in - - ()
Sea Level Pressure  
Sea Level Pressure 30.12 in    
Wind  
Wind Speed 12 mph (ESE)    
Max Wind Speed 17 mph    
Max Gust Speed 23 mph    
Visibility 6 miles    
Events Rain , Snow    
Averages and records for this station are not official NWS values.
T = Trace of Precipitation, MM = Missing Value Source: NWS Daily Summary

Daily Weather History Graph

Daily Weather History Graph

Search for Another Location

Airport:

Trip Planner

Search our weather history database for the weather conditions in past years. The results will help you decide how hot, cold, wet, or windy it might be!

Date:

Astronomy

Dec. 08, 2013 Rise Set
Actual Time 7:29 AM CST 4:48 PM CST
Civil Twilight 6:59 AM CST 5:19 PM CST
Nautical Twilight 6:24 AM CST 5:54 PM CST
Astronomical Twilight 5:51 AM CST 6:27 PM CST
Moon 11:48 AM CST (12/8) 11:41 PM CST (12/8)
Length of Visible Light 10h 20m
Length of Day
9h 18m
Waxing Crescent, 40% of the Moon is Illuminated
Dec 8
Waxing Crescent
Dec 9
First Quarter
Dec 17
Full
Dec 25
Last Quarter
Jan 1
New

Hourly Weather History & Observations

Time (CST) Temp. Windchill Dew Point Humidity Pressure Visibility Wind Dir Wind Speed Gust Speed Precip Events Conditions
12:15 AM 12.2 °F -2.5 °F -0.4 °F 57% 30.41 in 10.0 mi ENE 12.7 mph - N/A   Mostly Cloudy
12:35 AM 12.2 °F -1.8 °F -0.4 °F 57% 30.39 in 10.0 mi East 11.5 mph 17.3 mph N/A   Overcast
12:55 AM 12.2 °F -3.1 °F -2.2 °F 53% 30.38 in 10.0 mi East 13.8 mph - N/A   Overcast
1:15 AM 12.2 °F -3.7 °F -2.2 °F 53% 30.37 in 10.0 mi East 15.0 mph - N/A   Overcast
1:35 AM 12.2 °F -1.8 °F -0.4 °F 57% 30.37 in 10.0 mi East 11.5 mph - N/A   Overcast
1:55 AM 12.2 °F -3.7 °F -0.4 °F 57% 30.35 in 10.0 mi East 15.0 mph - N/A   Overcast
2:15 AM 12.2 °F -2.5 °F -0.4 °F 57% 30.34 in 10.0 mi East 12.7 mph - N/A   Overcast
2:35 AM 12.2 °F -3.1 °F -0.4 °F 57% 30.34 in 10.0 mi East 13.8 mph - N/A   Overcast
2:55 AM 12.2 °F -4.3 °F -0.4 °F 57% 30.32 in 10.0 mi East 16.1 mph - N/A   Overcast
3:15 AM 12.2 °F -3.1 °F -0.4 °F 57% 30.31 in 10.0 mi East 13.8 mph - N/A   Overcast
3:35 AM 12.2 °F -2.5 °F -0.4 °F 57% 30.30 in 10.0 mi East 12.7 mph - N/A   Overcast
3:55 AM 12.2 °F -4.3 °F -0.4 °F 57% 30.28 in 10.0 mi East 16.1 mph 21.9 mph N/A   Overcast
4:15 AM 12.2 °F -3.7 °F -0.4 °F 57% 30.27 in 10.0 mi East 15.0 mph - N/A   Overcast
4:35 AM 12.2 °F -2.5 °F -0.4 °F 57% 30.26 in 10.0 mi East 12.7 mph 19.6 mph N/A   Overcast
4:55 AM 12.2 °F -3.1 °F 1.4 °F 62% 30.24 in 10.0 mi East 13.8 mph - N/A   Overcast
5:15 AM 12.2 °F -4.3 °F 1.4 °F 62% 30.23 in 10.0 mi East 16.1 mph - N/A   Overcast
5:35 AM 12.2 °F -3.7 °F 1.4 °F 62% 30.21 in 10.0 mi East 15.0 mph 21.9 mph N/A   Overcast
5:55 AM 12.2 °F -4.3 °F 1.4 °F 62% 30.21 in 10.0 mi East 16.1 mph 23.0 mph N/A   Overcast
6:15 AM 12.2 °F -4.8 °F 1.4 °F 62% 30.19 in 10.0 mi East 17.3 mph - N/A   Overcast
6:35 AM 12.2 °F -4.8 °F 3.2 °F 67% 30.18 in 4.0 mi ESE 17.3 mph - N/A Snow Light Snow
6:55 AM 12.2 °F -3.7 °F 5.0 °F 73% 30.17 in 3.0 mi East 15.0 mph 21.9 mph N/A Snow Light Snow
7:15 AM 12.2 °F -4.3 °F 6.8 °F 79% 30.16 in 3.0 mi ESE 16.1 mph 23.0 mph N/A Snow Light Snow
7:35 AM 12.2 °F -4.3 °F 6.8 °F 79% 30.15 in 1.2 mi East 16.1 mph - N/A Snow Light Snow
7:55 AM 12.2 °F -4.3 °F 8.6 °F 85% 30.15 in 2.0 mi East 16.1 mph - N/A Snow Light Snow
8:15 AM 12.2 °F -3.7 °F 8.6 °F 85% 30.14 in 2.5 mi East 15.0 mph 23.0 mph N/A Snow Light Snow
8:35 AM 12.2 °F -3.7 °F 8.6 °F 85% 30.14 in 1.5 mi ESE 15.0 mph - N/A Snow Light Snow
8:55 AM 14.0 °F -2.5 °F 8.6 °F 79% 30.14 in 0.8 mi ESE 17.3 mph - N/A Snow Light Snow
9:15 AM 14.0 °F -0.8 °F 8.6 °F 79% 30.14 in 1.0 mi ESE 13.8 mph - N/A Snow Light Snow
9:35 AM 14.0 °F 0.5 °F 10.4 °F 86% 30.15 in 0.8 mi ESE 11.5 mph - N/A Snow Light Snow
9:55 AM 14.0 °F -0.8 °F 10.4 °F 86% 30.14 in 1.0 mi ESE 13.8 mph - N/A Snow Light Snow
10:15 AM 14.0 °F -1.4 °F 10.4 °F 86% 30.12 in 1.5 mi ESE 15.0 mph - N/A Snow Light Snow
10:35 AM 15.8 °F 0.9 °F 10.4 °F 79% 30.11 in 1.0 mi ESE 15.0 mph - N/A Snow Light Snow
10:55 AM 15.8 °F 0.9 °F 10.4 °F 79% 30.10 in 1.5 mi ESE 15.0 mph - N/A Snow Light Snow
11:15 AM 15.8 °F 0.9 °F 12.2 °F 86% 30.08 in 3.0 mi ESE 15.0 mph - N/A Snow Light Snow
11:35 AM 15.8 °F 3.4 °F 12.2 °F 86% 30.08 in - ESE 10.4 mph - N/A Snow Light Snow
11:55 AM 15.8 °F 3.4 °F 12.2 °F 86% 30.06 in 1.0 mi SE 10.4 mph - N/A Snow Light Snow
12:15 PM 15.8 °F 5.1 °F 12.2 °F 86% 30.05 in 0.5 mi ESE 8.1 mph - N/A Snow Light Snow
12:35 PM 17.6 °F 6.4 °F 12.2 °F 79% 30.04 in 2.0 mi ESE 9.2 mph - N/A Snow Light Snow
12:55 PM 17.6 °F 7.3 °F 12.2 °F 79% 30.03 in 4.0 mi ESE 8.1 mph - N/A Snow Light Snow
1:15 PM 17.6 °F 5.7 °F 12.2 °F 79% 30.02 in 8.0 mi SE 10.4 mph - N/A Snow Light Snow
1:35 PM 17.6 °F 7.3 °F 12.2 °F 79% 30.02 in 9.0 mi SE 8.1 mph - N/A Snow Light Snow
1:55 PM 17.6 °F 7.3 °F 12.2 °F 79% 30.00 in 7.0 mi SE 8.1 mph - N/A Snow Light Snow
2:15 PM 17.6 °F 9.3 °F 12.2 °F 79% 29.99 in 6.0 mi SE 5.8 mph - N/A Snow Light Snow
2:35 PM 17.6 °F 12.3 °F 12.2 °F 79% 29.99 in 7.0 mi SE 3.5 mph - N/A Snow Light Snow
2:55 PM 17.6 °F 10.7 °F 12.2 °F 79% 29.99 in 6.0 mi SE 4.6 mph - N/A Snow Light Snow
3:15 PM 17.6 °F 10.7 °F 12.2 °F 79% 29.98 in 5.0 mi SSE 4.6 mph - N/A Snow Light Snow
3:35 PM 17.6 °F - 12.2 °F 79% 29.99 in 5.0 mi Calm Calm - N/A Snow Light Snow
3:55 PM 17.6 °F - 12.2 °F 79% 29.98 in 8.0 mi Calm Calm - N/A   Overcast
4:15 PM 17.6 °F - 12.2 °F 79% 29.98 in 9.0 mi Calm Calm - N/A   Overcast
4:35 PM 17.6 °F - 12.2 °F 79% 29.97 in 10.0 mi Calm Calm - N/A   Overcast
4:55 PM 17.6 °F - 12.2 °F 79% 29.98 in 10.0 mi Calm Calm - N/A   Overcast
5:15 PM 17.6 °F - 12.2 °F 79% 29.98 in 10.0 mi Calm Calm - N/A   Overcast
5:35 PM 17.6 °F - 12.2 °F 79% 29.99 in 10.0 mi Calm Calm - N/A   Overcast
5:55 PM 17.6 °F - 12.2 °F 79% 30.00 in 10.0 mi Calm Calm - N/A   Overcast
6:15 PM 17.6 °F 12.3 °F 14.0 °F 86% 30.01 in 10.0 mi West 3.5 mph - N/A   Overcast
6:35 PM 17.6 °F 10.7 °F 14.0 °F 86% 30.02 in 7.0 mi West 4.6 mph - N/A Snow Light Snow
6:55 PM 15.8 °F 8.6 °F 14.0 °F 93% 30.01 in 2.5 mi West 4.6 mph - N/A Snow Light Snow
7:15 PM 15.8 °F 8.6 °F 14.0 °F 93% 30.03 in 3.0 mi West 4.6 mph - N/A Snow Light Snow
7:35 PM 15.8 °F 6.1 °F 14.0 °F 93% 30.03 in 3.0 mi West 6.9 mph - N/A Snow Light Snow
7:55 PM 15.8 °F 6.1 °F 14.0 °F 93% 30.03 in 2.5 mi West 6.9 mph - N/A Snow Light Snow
8:15 PM 15.8 °F 4.2 °F 14.0 °F 93% 30.03 in 1.5 mi West 9.2 mph - N/A Snow Light Snow
8:35 PM 15.8 °F 4.2 °F 14.0 °F 93% 30.04 in 3.0 mi West 9.2 mph - N/A Snow Light Snow
8:55 PM 15.8 °F 2.7 °F 14.0 °F 93% 30.03 in 2.5 mi WNW 11.5 mph - N/A Snow Light Snow
9:15 PM 15.8 °F 2.7 °F 14.0 °F 93% 30.04 in 2.0 mi WNW 11.5 mph - N/A Snow Light Snow
9:35 PM 15.8 °F 4.2 °F 14.0 °F 93% 30.03 in 2.0 mi NW 9.2 mph - N/A Snow Light Snow
9:55 PM 15.8 °F 2.7 °F 12.2 °F 86% 30.04 in 8.0 mi WNW 11.5 mph - N/A Rain Light Freezing Rain
10:15 PM 15.8 °F 2.7 °F 12.2 °F 86% 30.04 in 10.0 mi WNW 11.5 mph - N/A Snow Light Snow
10:35 PM 14.0 °F 1.2 °F 10.4 °F 86% 30.05 in 8.0 mi WNW 10.4 mph - N/A Rain Light Freezing Rain
10:55 PM 12.2 °F -1.0 °F 8.6 °F 85% 30.06 in 8.0 mi WNW 10.4 mph - N/A Rain Light Freezing Rain
11:15 PM 12.2 °F -1.8 °F 8.6 °F 85% 30.07 in 6.0 mi WNW 11.5 mph - N/A Rain Light Freezing Rain
11:35 PM 8.6 °F -2.6 °F 6.8 °F 92% 30.07 in 10.0 mi WNW 6.9 mph - N/A   Overcast
11:55 PM 8.6 °F -6.3 °F 6.8 °F 92% 30.08 in 10.0 mi WNW 11.5 mph - N/A   Mostly Cloudy